SV9FBP Weather Reports


time (UTC)temp
F
wind
direction
speed
knots
gust
knots
rain 1hr
in
rain 24hr
in
rain mn
in
humidity
%
barometer
mb
20260508101623 69 225 1.7 3.5 0.00 0.00 0.00 71 1018.6
20260508100121 68 180 0.9 4.3 0.00 0.00 0.00 73 1018.8
20260508094619 68 225 1.7 3.5 0.00 0.00 0.00 76 1019.1
20260508093117 68 180 0.9 4.3 0.00 0.00 0.00 76 1019.1
20260508091614 69 315 1.7 4.3 0.00 0.00 0.00 75 1019.3
20260508090112 69 293 1.7 4.3 0.00 0.00 0.00 75 1019.5
20260508084610 69 225 0.9 6.1 0.00 0.00 0.00 76 1019.5
20260508083108 69 315 3.5 7.8 0.00 0.00 0.00 78 1019.3
20260508081606 69 135 3.5 7.8 0.00 0.00 0.00 79 1019.1
20260508080104 68 225 3.5 4.3 0.00 0.00 0.00 78 1019.0
20260508074602 68 45 1.7 4.3 0.00 0.00 0.00 79 1018.7
20260508073059 68 225 1.7 6.1 0.00 0.00 0.00 80 1018.3
20260508071557 68 225 1.7 6.1 0.00 0.00 0.00 81 1017.8
20260508070055 67 225 2.6 3.5 0.00 0.00 0.00 81 1017.5
20260508064553 67 180 2.6 3.5 0.00 0.00 0.00 82 1017.4
20260508063051 67 180 1.7 3.5 0.00 0.00 0.00 82 1017.0
20260508061549 66 135 2.6 4.3 0.00 0.00 0.00 82 1016.9
20260508060046 66 135 1.7 4.3 0.00 0.00 0.00 82 1017.0
20260508054545 66 180 3.5 4.3 0.00 0.00 0.00 82 1017.3
20260508053042 65 180 0.9 1.7 0.00 0.00 0.00 82 1016.8
20260508051540 65 180 1.7 3.5 0.00 0.00 0.00 81 1016.8
20260508050038 65 135 1.7 1.7 0.00 0.00 0.00 80 1016.6
20260508044536 64 270 0.0 0.0 0.00 0.00 0.00 79 1016.3
20260508043034 64 225 0.0 0.0 0.00 0.00 0.00 78 1016.2
20260508041531 63 135 0.0 0.0 0.00 0.00 0.00 81 1016.2
20260508040030 63 315 0.0 1.7 0.00 0.00 0.00 80 1016.5
20260508034528 62 0 0.9 2.6 0.00 0.00 0.00 80 1016.6
20260508033011 62 0 1.7 2.6 0.00 0.00 0.00 80 1016.8
20260508031509 62 270 0.0 0.0 0.00 0.00 0.00 80 1016.9
20260508030007 62 225 0.0 0.0 0.00 0.00 0.00 79 1016.7
20260508024504 63 315 0.0 0.0 0.00 0.00 0.00 79 1016.8
20260508023002 63 270 0.0 0.0 0.00 0.00 0.00 78 1016.7
20260508021500 63 315 0.0 0.0 0.00 0.00 0.00 78 1016.7
20260508020001 63 270 0.0 1.7 0.00 0.00 0.00 78 1016.7
20260508014456 63 270 0.0 0.9 0.00 0.00 0.00 77 1016.8
20260508012954 63 180 0.0 0.0 0.00 0.00 0.00 77 1016.6
20260508011452 63 180 0.0 0.9 0.00 0.00 0.00 76 1016.6
20260508005950 63 225 0.0 0.0 0.00 0.00 0.00 75 1016.7
20260508004448 63 225 0.0 1.7 0.00 0.00 0.00 74 1016.8
20260508002945 63 45 0.0 1.7 0.00 0.00 0.00 74 1016.7
20260508001443 63 45 1.7 1.7 0.00 0.00 0.00 73 1016.9
20260507235941 63 315 0.0 0.0 0.00 0.00 0.00 73 1017.0
20260507234439 63 270 0.0 0.0 0.00 0.00 0.00 72 1017.1
20260507232936 63 270 0.0 0.0 0.00 0.00 0.00 72 1017.2
20260507231435 63 180 0.0 0.0 0.00 0.00 0.00 72 1017.3
20260507225932 63 315 0.0 0.0 0.00 0.00 0.00 71 1017.6
20260507224430 63 45 0.0 0.0 0.00 0.00 0.00 71 1017.7
20260507222928 63 0 0.0 0.0 0.00 0.00 0.00 71 1017.7
20260507221426 64 45 0.0 0.0 0.00 0.00 0.00 68 1017.8
20260507215924 64 0 0.0 1.7 0.00 0.00 0.00 68 1017.9
20260507214422 64 270 0.0 2.6 0.00 0.00 0.00 67 1018.0
20260507212920 64 315 1.7 2.6 0.00 0.00 0.00 67 1018.1
20260507211417 64 270 0.0 0.9 0.00 0.00 0.00 66 1017.9
20260507205916 64 180 0.0 1.7 0.00 0.00 0.00 66 1017.8
20260507204413 64 45 0.9 1.7 0.00 0.00 0.00 65 1017.8
20260507202912 65 315 1.7 2.6 0.00 0.00 0.00 65 1017.9
20260507201409 65 0 1.7 1.7 0.00 0.00 0.00 65 1018.0
20260507195906 65 270 0.0 0.9 0.00 0.00 0.00 65 1018.1
20260507194405 65 270 0.0 1.7 0.00 0.00 0.00 66 1018.0
20260507192902 66 225 0.0 1.7 0.00 0.00 0.00 66 1017.9
20260507191400 66 225 0.0 0.9 0.00 0.00 0.00 67 1018.1
20260507185859 67 45 0.9 2.6 0.00 0.00 0.00 67 1017.8
20260507184355 67 225 0.0 1.7 0.00 0.00 0.00 67 1017.9
20260507182854 68 225 0.0 1.7 0.00 0.00 0.00 66 1017.7
20260507181352 68 315 0.9 1.7 0.00 0.00 0.00 65 1017.6
20260507175850 69 315 1.7 1.7 0.00 0.00 0.00 65 1017.7
20260507174348 69 225 0.0 1.7 0.00 0.00 0.00 63 1017.4
20260507172845 69 225 0.9 1.7 0.00 0.00 0.00 62 1017.7
20260507171344 69 225 1.7 1.7 0.00 0.00 0.00 63 1017.7
20260507165841 69 270 0.9 1.7 0.00 0.00 0.00 62 1017.4
20260507164339 70 315 0.0 2.6 0.00 0.00 0.00 61 1017.7
20260507162837 70 270 0.9 1.7 0.00 0.00 0.00 60 1017.6
20260507161334 71 225 0.0 2.6 0.00 0.00 0.00 60 1017.4
20260507155833 71 135 1.7 2.6 0.00 0.00 0.00 60 1017.5
20260507154331 70 180 0.9 3.5 0.00 0.00 0.00 58 1017.3
20260507152828 71 270 1.7 3.5 0.00 0.00 0.00 59 1017.4
20260507151329 71 225 2.6 4.3 0.00 0.00 0.00 59 1017.6
20260507145823 71 158 2.6 5.2 0.00 0.00 0.00 56 1018.0
20260507144322 71 180 2.6 4.3 0.00 0.00 0.00 53 1018.0
20260507142819 72 315 1.7 7.0 0.00 0.00 0.00 54 1017.9
20260507141317 73 135 2.6 7.0 0.00 0.00 0.00 52 1018.0
20260507135815 73 135 5.2 7.0 0.00 0.00 0.00 53 1018.0
20260507134314 73 225 3.5 7.8 0.00 0.00 0.00 51 1017.8
20260507132810 74 180 3.5 6.1 0.00 0.00 0.00 47 1017.9
20260507131309 74 180 4.3 7.0 0.00 0.00 0.00 44 1017.9
20260507125807 75 45 1.7 7.0 0.00 0.00 0.00 45 1018.1
20260507124305 75 225 2.6 7.8 0.00 0.00 0.00 43 1018.4
20260507122802 75 270 2.6 7.0 0.00 0.00 0.00 36 1018.3
20260507121300 76 293 3.5 6.1 0.00 0.00 0.00 43 1018.4
20260507115758 76 180 3.5 7.8 0.00 0.00 0.00 43 1018.5
20260507114256 76 90 4.3 7.0 0.00 0.00 0.00 50 1018.4
20260507112753 77 225 5.2 7.8 0.00 0.00 0.00 52 1018.2
20260507111251 76 135 4.3 7.0 0.00 0.00 0.00 50 1018.4
20260507105750 76 180 7.0 7.8 0.00 0.00 0.00 55 1018.2
20260507104247 76 135 5.2 7.8 0.00 0.00 0.00 61 1018.2
20260507102745 74 135 7.0 7.0 0.00 0.00 0.00 63 1018.4